| time (UTC) | temp C | wind direction | speed KPH | gust KPH | rain 1hr cm | rain 24hr cm | rain mn cm | humidity % | barometer mb |
| 20260507185535 | 20 | 352 | 14.5 | 29.0 | 0.00 | 0.00 | 0.00 | 32 | 1011.0 |
| 20260507185024 | 19 | 360 | 17.7 | 25.7 | 0.00 | 0.00 | 0.00 | 33 | 1011.1 |
| 20260507184640 | 19 | 338 | 8.0 | 29.0 | 0.00 | 0.00 | 0.00 | 34 | 1011.1 |
| 20260507184023 | 20 | 24 | 14.5 | 27.4 | 0.00 | 0.00 | 0.00 | 33 | 1011.0 |
| 20260507183522 | 20 | 333 | 11.3 | 29.0 | 0.00 | 0.00 | 0.00 | 35 | 1011.1 |
| 20260507183147 | 20 | 9 | 20.9 | 29.0 | 0.00 | 0.00 | 0.00 | 34 | 1011.4 |
| 20260507182537 | 19 | 26 | 8.0 | 25.7 | 0.00 | 0.00 | 0.00 | 36 | 1011.4 |
| 20260507182029 | 19 | 27 | 12.9 | 24.1 | 0.00 | 0.00 | 0.00 | 34 | 1011.5 |
| 20260507181644 | 20 | 342 | 12.9 | 24.1 | 0.00 | 0.00 | 0.00 | 34 | 1011.5 |
| 20260507181029 | 20 | 11 | 12.9 | 24.1 | 0.00 | 0.00 | 0.00 | 35 | 1011.6 |
| 20260507180536 | 19 | 345 | 9.7 | 25.7 | 0.00 | 0.00 | 0.00 | 35 | 1011.6 |
| 20260507180152 | 19 | 27 | 11.3 | 25.7 | 0.00 | 0.00 | 0.00 | 35 | 1011.7 |
| 20260507175523 | 18 | 28 | 12.9 | 25.7 | 0.00 | 0.00 | 0.00 | 36 | 1011.6 |
| 20260507175041 | 18 | 26 | 12.9 | 25.7 | 0.00 | 0.00 | 0.00 | 37 | 1011.5 |
| 20260507174622 | 18 | 9 | 11.3 | 24.1 | 0.00 | 0.00 | 0.00 | 37 | 1011.5 |
| 20260507174023 | 18 | 348 | 12.9 | 24.1 | 0.00 | 0.00 | 0.00 | 37 | 1011.6 |
| 20260507173520 | 18 | 348 | 3.2 | 12.9 | 0.00 | 0.00 | 0.00 | 36 | 1011.7 |
| 20260507173137 | 18 | 330 | 3.2 | 14.5 | 0.00 | 0.00 | 0.00 | 37 | 1011.6 |
| 20260507172527 | 17 | 313 | 4.8 | 14.5 | 0.00 | 0.00 | 0.00 | 36 | 1011.6 |
| 20260507172032 | 17 | 26 | 8.0 | 14.5 | 0.00 | 0.00 | 0.00 | 37 | 1011.9 |
| 20260507171635 | 18 | 5 | 3.2 | 9.7 | 0.00 | 0.00 | 0.00 | 36 | 1011.7 |
| 20260507171042 | 17 | 273 | 3.2 | 14.5 | 0.00 | 0.00 | 0.00 | 36 | 1011.7 |
| 20260507170527 | 17 | 14 | 6.4 | 16.1 | 0.00 | 0.00 | 0.00 | 36 | 1011.8 |
| 20260507170200 | 17 | 335 | 4.8 | 16.1 | 0.00 | 0.00 | 0.00 | 36 | 1012.0 |
| 20260507165532 | 17 | 336 | 4.8 | 12.9 | 0.00 | 0.00 | 0.00 | 36 | 1011.9 |
| 20260507165044 | 16 | 317 | 4.8 | 12.9 | 0.00 | 0.00 | 0.00 | 36 | 1011.9 |
| 20260507164624 | 16 | 20 | 3.2 | 12.9 | 0.00 | 0.00 | 0.00 | 35 | 1011.9 |
| 20260507164020 | 16 | 9 | 6.4 | 12.9 | 0.00 | 0.00 | 0.00 | 35 | 1012.0 |
| 20260507163532 | 16 | 21 | 4.8 | 12.9 | 0.00 | 0.00 | 0.00 | 37 | 1012.1 |
| 20260507163138 | 15 | 18 | 4.8 | 12.9 | 0.00 | 0.00 | 0.00 | 36 | 1012.0 |
| 20260507162528 | 15 | 321 | 4.8 | 12.9 | 0.00 | 0.00 | 0.00 | 36 | 1012.1 |
| 20260507162045 | 14 | 325 | 4.8 | 12.9 | 0.00 | 0.00 | 0.00 | 38 | 1012.1 |
| 20260507161623 | 14 | 330 | 3.2 | 12.9 | 0.00 | 0.00 | 0.00 | 35 | 1012.2 |
| 20260507161038 | 14 | 350 | 4.8 | 12.9 | 0.00 | 0.00 | 0.00 | 35 | 1012.2 |
| 20260507160542 | 14 | 325 | 6.4 | 12.9 | 0.00 | 0.00 | 0.00 | 36 | 1012.2 |
| 20260507160131 | 13 | 335 | 4.8 | 14.5 | 0.00 | 0.00 | 0.00 | 35 | 1012.3 |
| 20260507155540 | 13 | 326 | 3.2 | 14.5 | 0.00 | 0.00 | 0.00 | 35 | 1012.2 |
| 20260507155024 | 13 | 217 | 3.2 | 8.0 | 0.00 | 0.00 | 0.00 | 37 | 1012.4 |
| 20260507154617 | 12 | 17 | 1.6 | 8.0 | 0.00 | 0.00 | 0.00 | 35 | 1012.4 |
| 20260507154021 | 12 | 235 | 1.6 | 8.0 | 0.00 | 0.00 | 0.00 | 35 | 1012.2 |
| 20260507153547 | 12 | 262 | 3.2 | 8.0 | 0.00 | 0.00 | 0.00 | 35 | 1012.3 |
| 20260507153130 | 11 | 269 | 1.6 | 6.4 | 0.00 | 0.00 | 0.00 | 36 | 1012.4 |
| 20260507152540 | 11 | 340 | 3.2 | 6.4 | 0.00 | 0.00 | 0.00 | 36 | 1012.5 |
| 20260507152033 | 11 | 239 | 3.2 | 6.4 | 0.00 | 0.00 | 0.00 | 37 | 1012.4 |
| 20260507151611 | 10 | 239 | 1.6 | 6.4 | 0.00 | 0.00 | 0.00 | 39 | 1012.5 |
| 20260507151019 | 10 | 223 | 3.2 | 9.7 | 0.00 | 0.00 | 0.00 | 38 | 1012.4 |
| 20260507150523 | 10 | 244 | 4.8 | 9.7 | 0.00 | 0.00 | 0.00 | 39 | 1012.5 |
| 20260507150132 | 10 | 245 | 4.8 | 9.7 | 0.00 | 0.00 | 0.00 | 40 | 1012.4 |
| 20260507145534 | 10 | 220 | 6.4 | 9.7 | 0.00 | 0.00 | 0.00 | 40 | 1012.3 |
| 20260507145017 | 9 | 220 | 4.8 | 9.7 | 0.00 | 0.00 | 0.00 | 40 | 1012.4 |
| 20260507144635 | 9 | 255 | 3.2 | 8.0 | 0.00 | 0.00 | 0.00 | 41 | 1012.3 |
| 20260507144022 | 8 | 260 | 4.8 | 8.0 | 0.00 | 0.00 | 0.00 | 41 | 1012.4 |
| 20260507143541 | 8 | 275 | 3.2 | 6.4 | 0.00 | 0.00 | 0.00 | 41 | 1012.3 |
| 20260507143118 | 8 | 265 | 3.2 | 6.4 | 0.00 | 0.00 | 0.00 | 42 | 1012.2 |
| 20260507142528 | 8 | 257 | 3.2 | 8.0 | 0.00 | 0.00 | 0.00 | 41 | 1012.2 |
| 20260507142024 | 8 | 256 | 3.2 | 8.0 | 0.00 | 0.00 | 0.00 | 42 | 1012.1 |
| 20260507141646 | 8 | 290 | 3.2 | 6.4 | 0.00 | 0.00 | 0.00 | 42 | 1012.1 |
| 20260507141023 | 8 | 292 | 1.6 | 6.4 | 0.00 | 0.00 | 0.00 | 42 | 1012.1 |
| 20260507140542 | 7 | 294 | 0.0 | 6.4 | 0.00 | 0.00 | 0.00 | 43 | 1012.1 |
| 20260507140137 | 7 | 294 | 3.2 | 6.4 | 0.00 | 0.00 | 0.00 | 43 | 1012.1 |
| 20260507135519 | 7 | 313 | 0.0 | 3.2 | 0.00 | 0.00 | 0.00 | 44 | 1011.9 |
| 20260507135045 | 7 | 313 | 0.0 | 3.2 | 0.00 | 0.00 | 0.00 | 44 | 1012.0 |
| 20260507134633 | 7 | 313 | 0.0 | 4.8 | 0.00 | 0.00 | 0.00 | 44 | 1011.9 |
| 20260507134034 | 7 | 338 | 1.6 | 4.8 | 0.00 | 0.00 | 0.00 | 44 | 1011.9 |
| 20260507133541 | 7 | 338 | 1.6 | 3.2 | 0.00 | 0.00 | 0.00 | 45 | 1011.9 |
| 20260507133136 | 7 | 337 | 1.6 | 4.8 | 0.00 | 0.00 | 0.00 | 45 | 1012.0 |
| 20260507132527 | 6 | 338 | 1.6 | 6.4 | 0.00 | 0.00 | 0.00 | 46 | 1011.9 |
| 20260507132030 | 6 | 360 | 3.2 | 9.7 | 0.00 | 0.00 | 0.00 | 46 | 1012.1 |
| 20260507131634 | 6 | 345 | 4.8 | 9.7 | 0.00 | 0.00 | 0.00 | 46 | 1012.2 |
| 20260507131021 | 6 | 9 | 3.2 | 8.0 | 0.00 | 0.00 | 0.00 | 48 | 1012.0 |
| 20260507130541 | 6 | 5 | 4.8 | 6.4 | 0.00 | 0.00 | 0.00 | 47 | 1011.9 |
| 20260507130135 | 6 | 351 | 1.6 | 6.4 | 0.00 | 0.00 | 0.00 | 47 | 1011.9 |
| 20260507125535 | 6 | 338 | 3.2 | 6.4 | 0.00 | 0.00 | 0.00 | 47 | 1011.7 |
| 20260507125030 | 6 | 5 | 3.2 | 6.4 | 0.00 | 0.00 | 0.00 | 47 | 1011.8 |
| 20260507124631 | 6 | 11 | 3.2 | 4.8 | 0.00 | 0.00 | 0.00 | 48 | 1011.7 |
| 20260507124042 | 6 | 11 | 1.6 | 4.8 | 0.00 | 0.00 | 0.00 | 48 | 1011.6 |
| 20260507123524 | 6 | 11 | 0.0 | 4.8 | 0.00 | 0.00 | 0.00 | 47 | 1011.5 |
| 20260507123129 | 6 | 11 | 1.6 | 4.8 | 0.00 | 0.00 | 0.00 | 47 | 1011.6 |
| 20260507122540 | 6 | 11 | 0.0 | 6.4 | 0.00 | 0.00 | 0.00 | 47 | 1011.4 |
| 20260507122019 | 6 | 11 | 3.2 | 8.0 | 0.00 | 0.00 | 0.00 | 46 | 1011.3 |
| 20260507121634 | 6 | 5 | 4.8 | 9.7 | 0.00 | 0.00 | 0.00 | 45 | 1011.4 |
| 20260507121020 | 6 | 5 | 4.8 | 9.7 | 0.00 | 0.00 | 0.00 | 44 | 1011.4 |
| 20260507120542 | 6 | 337 | 1.6 | 8.0 | 0.00 | 0.00 | 0.00 | 45 | 1011.2 |
| 20260507120154 | 6 | 331 | 4.8 | 8.0 | 0.00 | 0.00 | 0.00 | 45 | 1011.2 |
| 20260507115525 | 6 | 313 | 1.6 | 4.8 | 0.00 | 0.00 | 0.00 | 46 | 1011.3 |
| 20260507115028 | 6 | 313 | 0.0 | 3.2 | 0.00 | 0.00 | 0.00 | 47 | 1011.1 |
| 20260507114638 | 6 | 313 | 0.0 | 4.8 | 0.00 | 0.00 | 0.00 | 47 | 1011.2 |
| 20260507114025 | 6 | 313 | 1.6 | 3.2 | 0.00 | 0.00 | 0.00 | 47 | 1011.1 |
| 20260507113520 | 6 | 313 | 0.0 | 3.2 | 0.00 | 0.00 | 0.00 | 48 | 1011.0 |
| 20260507113140 | 5 | 313 | 0.0 | 6.4 | 0.00 | 0.00 | 0.00 | 48 | 1010.9 |
| 20260507112534 | 6 | 313 | 0.0 | 8.0 | 0.00 | 0.00 | 0.00 | 48 | 1010.8 |
| 20260507112038 | 6 | 319 | 1.6 | 8.0 | 0.00 | 0.00 | 0.00 | 48 | 1010.7 |
| 20260507111632 | 6 | 5 | 4.8 | 9.7 | 0.00 | 0.00 | 0.00 | 48 | 1010.6 |
| 20260507111045 | 5 | 12 | 3.2 | 11.3 | 0.00 | 0.00 | 0.00 | 48 | 1010.4 |
| 20260507110538 | 5 | 16 | 1.6 | 9.7 | 0.00 | 0.00 | 0.00 | 48 | 1010.6 |
| 20260507110135 | 5 | 16 | 3.2 | 12.9 | 0.00 | 0.00 | 0.00 | 48 | 1010.7 |
| 20260507105522 | 5 | 360 | 6.4 | 12.9 | 0.00 | 0.00 | 0.00 | 48 | 1010.3 |
| 20260507105025 | 6 | 31 | 4.8 | 12.9 | 0.00 | 0.00 | 0.00 | 48 | 1010.5 |
| 20260507104631 | 6 | 28 | 4.8 | 12.9 | 0.00 | 0.00 | 0.00 | 49 | 1010.2 |
| 20260507104033 | 6 | 34 | 3.2 | 8.0 | 0.00 | 0.00 | 0.00 | 51 | 1010.2 |
| 20260507103543 | 7 | 18 | 4.8 | 8.0 | 0.00 | 0.00 | 0.00 | 50 | 1010.0 |
| 20260507103131 | 7 | 329 | 3.2 | 8.0 | 0.00 | 0.00 | 0.00 | 50 | 1010.0 |
| 20260507102520 | 6 | 321 | 1.6 | 11.3 | 0.00 | 0.00 | 0.00 | 51 | 1009.8 |
| 20260507102029 | 6 | 283 | 3.2 | 11.3 | 0.00 | 0.00 | 0.00 | 51 | 1009.7 |
| 20260507101639 | 6 | 267 | 3.2 | 12.9 | 0.00 | 0.00 | 0.00 | 51 | 1009.7 |
| 20260507101045 | 6 | 281 | 8.0 | 12.9 | 0.00 | 0.00 | 0.00 | 52 | 1009.5 |
| 20260507100525 | 6 | 255 | 1.6 | 9.7 | 0.00 | 0.00 | 0.00 | 52 | 1009.6 |
| 20260507100138 | 6 | 265 | 1.6 | 9.7 | 0.00 | 0.00 | 0.00 | 53 | 1009.4 |
| 20260507095530 | 6 | 286 | 3.2 | 11.3 | 0.00 | 0.00 | 0.00 | 54 | 1009.4 |
| 20260507095044 | 6 | 283 | 4.8 | 11.3 | 0.00 | 0.00 | 0.00 | 55 | 1009.6 |
| 20260507094633 | 6 | 322 | 3.2 | 6.4 | 0.00 | 0.00 | 0.00 | 55 | 1009.7 |
| 20260507094025 | 6 | 296 | 0.0 | 4.8 | 0.00 | 0.00 | 0.00 | 54 | 1009.5 |
| 20260507093523 | 6 | 310 | 3.2 | 4.8 | 0.00 | 0.00 | 0.00 | 53 | 1009.4 |
| 20260507093110 | 6 | 360 | 1.6 | 4.8 | 0.00 | 0.00 | 0.00 | 54 | 1009.5 |
| 20260507092518 | 6 | 360 | 1.6 | 4.8 | 0.00 | 0.00 | 0.00 | 54 | 1009.6 |
| 20260507092030 | 6 | 352 | 3.2 | 4.8 | 0.00 | 0.00 | 0.00 | 53 | 1009.5 |
| 20260507091616 | 6 | 294 | 1.6 | 4.8 | 0.00 | 0.00 | 0.00 | 53 | 1009.3 |
| 20260507091023 | 6 | 316 | 1.6 | 6.4 | 0.00 | 0.00 | 0.00 | 52 | 1009.4 |
| 20260507090541 | 6 | 312 | 3.2 | 6.4 | 0.00 | 0.00 | 0.00 | 52 | 1009.5 |
| 20260507090140 | 7 | 319 | 3.2 | 6.4 | 0.00 | 0.00 | 0.00 | 51 | 1009.5 |
| 20260507085530 | 7 | 61 | 0.0 | 3.2 | 0.00 | 0.00 | 0.00 | 51 | 1009.4 |
| 20260507085049 | 7 | 61 | 0.0 | 3.2 | 0.00 | 0.00 | 0.00 | 51 | 1009.3 |
| 20260507084622 | 7 | 61 | 0.0 | 3.2 | 0.00 | 0.00 | 0.00 | 51 | 1009.3 |
| 20260507084044 | 7 | 61 | 0.0 | 3.2 | 0.00 | 0.00 | 0.00 | 52 | 1009.3 |
| 20260507083519 | 7 | 61 | 1.6 | 3.2 | 0.00 | 0.00 | 0.00 | 52 | 1009.4 |
| 20260507083102 | 7 | 61 | 1.6 | 4.8 | 0.00 | 0.00 | 0.00 | 52 | 1009.3 |
| 20260507082532 | 7 | 61 | 0.0 | 4.8 | 0.00 | 0.00 | 0.00 | 51 | 1009.4 |
| 20260507082041 | 7 | 61 | 0.0 | 4.8 | 0.00 | 0.00 | 0.00 | 50 | 1009.4 |
| 20260507081639 | 7 | 42 | 1.6 | 6.4 | 0.00 | 0.00 | 0.00 | 50 | 1009.4 |
| 20260507081040 | 8 | 46 | 3.2 | 6.4 | 0.00 | 0.00 | 0.00 | 49 | 1009.7 |
| 20260507080538 | 8 | 48 | 1.6 | 8.0 | 0.00 | 0.00 | 0.00 | 47 | 1009.7 |
| 20260507080118 | 8 | 48 | 3.2 | 8.0 | 0.00 | 0.00 | 0.00 | 45 | 1009.5 |
| 20260507075519 | 8 | 206 | 0.0 | 1.6 | 0.00 | 0.00 | 0.00 | 45 | 1009.3 |
| 20260507075043 | 8 | 206 | 0.0 | 3.2 | 0.00 | 0.00 | 0.00 | 45 | 1009.2 |
| 20260507074645 | 8 | 206 | 0.0 | 3.2 | 0.00 | 0.00 | 0.00 | 45 | 1009.2 |
| 20260507074031 | 8 | 206 | 1.6 | 4.8 | 0.00 | 0.00 | 0.00 | 45 | 1009.0 |
| 20260507073539 | 8 | 206 | 1.6 | 4.8 | 0.00 | 0.00 | 0.00 | 45 | 1009.1 |
| 20260507073142 | 8 | 206 | 3.2 | 4.8 | 0.00 | 0.00 | 0.00 | 45 | 1009.0 |
| 20260507072517 | 8 | 169 | 3.2 | 6.4 | 0.00 | 0.00 | 0.00 | 45 | 1009.0 |
| 20260507072017 | 8 | 169 | 1.6 | 4.8 | 0.00 | 0.00 | 0.00 | 45 | 1009.1 |
| 20260507071645 | 8 | 169 | 1.6 | 8.0 | 0.00 | 0.00 | 0.00 | 44 | 1009.1 |
| 20260507071036 | 8 | 174 | 1.6 | 8.0 | 0.00 | 0.00 | 0.00 | 42 | 1008.9 |
| 20260507070523 | 9 | 138 | 0.0 | 6.4 | 0.00 | 0.00 | 0.00 | 42 | 1009.0 |
| 20260507070146 | 10 | 124 | 3.2 | 6.4 | 0.00 | 0.00 | 0.00 | 41 | 1009.1 |
| 20260507065544 | 10 | 80 | 1.6 | 14.5 | 0.00 | 0.00 | 0.00 | 42 | 1009.2 |
| 20260507065030 | 10 | 80 | 4.8 | 14.5 | 0.00 | 0.00 | 0.00 | 42 | 1009.2 |
| 20260507064623 | 10 | 55 | 3.2 | 9.7 | 0.00 | 0.00 | 0.00 | 39 | 1009.3 |
| 20260507064036 | 11 | 63 | 4.8 | 9.7 | 0.00 | 0.00 | 0.00 | 38 | 1009.0 |
| 20260507063526 | 11 | 58 | 6.4 | 9.7 | 0.00 | 0.00 | 0.00 | 38 | 1009.2 |
| 20260507063110 | 11 | 69 | 3.2 | 11.3 | 0.00 | 0.00 | 0.00 | 37 | 1009.2 |
| 20260507062530 | 11 | 64 | 6.4 | 9.7 | 0.00 | 0.00 | 0.00 | 36 | 1009.2 |
| 20260507062136 | 11 | 80 | 4.8 | 8.0 | 0.00 | 0.00 | 0.00 | 35 | 1008.9 |
| 20260507061731 | 11 | 57 | 3.2 | 6.4 | 0.00 | 0.00 | 0.00 | 36 | 1008.9 |
| 20260507061040 | 11 | 50 | 1.6 | 4.8 | 0.00 | 0.00 | 0.00 | 36 | 1008.9 |
| 20260507060546 | 11 | 55 | 1.6 | 4.8 | 0.00 | 0.00 | 0.00 | 36 | 1008.9 |
| 20260507060214 | 11 | 55 | 1.6 | 8.0 | 0.00 | 0.00 | 0.00 | 36 | 1008.9 |
| 20260507055525 | 11 | 55 | 1.6 | 8.0 | 0.00 | 0.00 | 0.00 | 35 | 1008.9 |
| 20260507055041 | 11 | 80 | 1.6 | 8.0 | 0.00 | 0.00 | 0.00 | 35 | 1008.9 |
| 20260507054712 | 11 | 76 | 3.2 | 6.4 | 0.00 | 0.00 | 0.00 | 35 | 1008.9 |
| 20260507054041 | 11 | 84 | 3.2 | 8.0 | 0.00 | 0.00 | 0.00 | 36 | 1009.0 |
| 20260507053542 | 11 | 84 | 4.8 | 8.0 | 0.00 | 0.00 | 0.00 | 36 | 1009.0 |
| 20260507053233 | 11 | 63 | 4.8 | 14.5 | 0.00 | 0.00 | 0.00 | 36 | 1009.2 |
| 20260507052530 | 11 | 51 | 3.2 | 17.7 | 0.00 | 0.00 | 0.00 | 35 | 1009.3 |
| 20260507052020 | 12 | 60 | 9.7 | 17.7 | 0.00 | 0.00 | 0.00 | 36 | 1009.3 |
| 20260507051735 | 12 | 46 | 3.2 | 9.7 | 0.00 | 0.00 | 0.00 | 36 | 1009.2 |
| 20260507051039 | 12 | 180 | 0.0 | 3.2 | 0.00 | 0.00 | 0.00 | 36 | 1009.0 |
| 20260507050542 | 12 | 180 | 0.0 | 3.2 | 0.00 | 0.00 | 0.00 | 37 | 1009.0 |
| 20260507050127 | 12 | 180 | 0.0 | 4.8 | 0.00 | 0.00 | 0.00 | 37 | 1009.1 |
| 20260507045530 | 12 | 180 | 0.0 | 16.1 | 0.00 | 0.00 | 0.00 | 36 | 1009.2 |
| 20260507045018 | 11 | 214 | 9.7 | 16.1 | 0.00 | 0.00 | 0.00 | 37 | 1009.1 |
| 20260507044737 | 11 | 227 | 11.3 | 14.5 | 0.00 | 0.00 | 0.00 | 41 | 1009.0 |
| 20260507044035 | 11 | 48 | 0.0 | 3.2 | 0.00 | 0.00 | 0.00 | 42 | 1008.9 |
| 20260507043525 | 11 | 48 | 0.0 | 3.2 | 0.00 | 0.00 | 0.00 | 40 | 1008.6 |
| 20260507043229 | 11 | 48 | 0.0 | 3.2 | 0.00 | 0.00 | 0.00 | 41 | 1008.5 |
| 20260507042535 | 11 | 48 | 0.0 | 1.6 | 0.00 | 0.00 | 0.00 | 39 | 1008.8 |
| 20260507042029 | 11 | 48 | 0.0 | 3.2 | 0.00 | 0.00 | 0.00 | 41 | 1008.7 |
| 20260507041649 | 11 | 48 | 0.0 | 6.4 | 0.00 | 0.00 | 0.00 | 42 | 1008.6 |
| 20260507041034 | 11 | 48 | 1.6 | 6.4 | 0.00 | 0.00 | 0.00 | 43 | 1008.5 |
| 20260507040525 | 11 | 146 | 1.6 | 9.7 | 0.00 | 0.00 | 0.00 | 42 | 1008.3 |
| 20260507040303 | 11 | 146 | 3.2 | 9.7 | 0.00 | 0.00 | 0.00 | 39 | 1008.1 |
| 20260507035524 | 11 | 92 | 1.6 | 9.7 | 0.00 | 0.00 | 0.00 | 46 | 1008.3 |
| 20260507035030 | 11 | 77 | 3.2 | 9.7 | 0.00 | 0.00 | 0.00 | 40 | 1008.3 |
| 20260507034732 | 11 | 32 | 3.2 | 8.0 | 0.00 | 0.00 | 0.00 | 42 | 1008.2 |
| 20260507034024 | 12 | 138 | 1.6 | 4.8 | 0.00 | 0.00 | 0.00 | 34 | 1007.8 |
| 20260507033519 | 12 | 45 | 3.2 | 4.8 | 0.00 | 0.00 | 0.00 | 32 | 1008.5 |
| 20260507033255 | 12 | 101 | 1.6 | 3.2 | 0.00 | 0.00 | 0.00 | 32 | 1008.5 |
| 20260507032524 | 12 | 136 | 0.0 | 9.7 | 0.00 | 0.00 | 0.00 | 32 | 1007.9 |
| 20260507032019 | 12 | 136 | 1.6 | 9.7 | 0.00 | 0.00 | 0.00 | 31 | 1007.6 |
| 20260507031750 | 12 | 86 | 1.6 | 3.2 | 0.00 | 0.00 | 0.00 | 31 | 1007.3 |
| 20260507031039 | 12 | 86 | 1.6 | 3.2 | 0.00 | 0.00 | 0.00 | 31 | 1007.1 |
| 20260507030531 | 12 | 86 | 1.6 | 3.2 | 0.00 | 0.00 | 0.00 | 31 | 1007.2 |
| 20260507030243 | 13 | 86 | 1.6 | 3.2 | 0.00 | 0.00 | 0.00 | 30 | 1007.1 |
| 20260507025530 | 13 | 86 | 1.6 | 3.2 | 0.00 | 0.00 | 0.00 | 30 | 1007.2 |
| 20260507025030 | 13 | 86 | 1.6 | 3.2 | 0.00 | 0.00 | 0.00 | 29 | 1007.3 |
| 20260507024710 | 13 | 86 | 1.6 | 3.2 | 0.00 | 0.00 | 0.00 | 29 | 1007.2 |
| 20260507024024 | 13 | 86 | 1.6 | 3.2 | 0.00 | 0.00 | 0.00 | 29 | 1007.3 |
| 20260507023527 | 14 | 86 | 0.0 | 3.2 | 0.00 | 0.00 | 0.00 | 29 | 1007.4 |
| 20260507023212 | 14 | 86 | 0.0 | 1.6 | 0.00 | 0.00 | 0.00 | 28 | 1007.6 |
| 20260507022520 | 15 | 86 | 1.6 | 3.2 | 0.00 | 0.00 | 0.00 | 28 | 1007.5 |
| 20260507022024 | 15 | 86 | 1.6 | 3.2 | 0.00 | 0.00 | 0.00 | 28 | 1007.7 |
| 20260507021719 | 15 | 86 | 1.6 | 3.2 | 0.00 | 0.00 | 0.00 | 27 | 1007.4 |
| 20260507021041 | 16 | 86 | 3.2 | 3.2 | 0.00 | 0.00 | 0.00 | 24 | 1007.5 |
| 20260507020531 | 16 | 86 | 1.6 | 6.4 | 0.00 | 0.00 | 0.00 | 24 | 1007.5 |
| 20260507020208 | 17 | 86 | 3.2 | 6.4 | 0.00 | 0.00 | 0.00 | 24 | 1007.5 |
| 20260507015534 | 17 | 86 | 0.0 | 3.2 | 0.00 | 0.00 | 0.00 | 23 | 1007.3 |
| 20260507015018 | 18 | 86 | 0.0 | 3.2 | 0.00 | 0.00 | 0.00 | 23 | 1007.3 |
| 20260507014714 | 18 | 86 | 0.0 | 3.2 | 0.00 | 0.00 | 0.00 | 23 | 1007.4 |
| 20260507014042 | 18 | 86 | 0.0 | 3.2 | 0.00 | 0.00 | 0.00 | 22 | 1007.3 |
| 20260507013541 | 19 | 86 | 1.6 | 8.0 | 0.00 | 0.00 | 0.00 | 22 | 1007.2 |
| 20260507013129 | 19 | 86 | 1.6 | 8.0 | 0.00 | 0.00 | 0.00 | 21 | 1007.4 |
| 20260507012542 | 19 | 82 | 1.6 | 6.4 | 0.00 | 0.00 | 0.00 | 21 | 1007.4 |
| 20260507012046 | 19 | 82 | 1.6 | 6.4 | 0.00 | 0.00 | 0.00 | 21 | 1007.4 |
| 20260507011659 | 20 | 80 | 3.2 | 6.4 | 0.00 | 0.00 | 0.00 | 21 | 1007.5 |
| 20260507011042 | 20 | 84 | 3.2 | 6.4 | 0.00 | 0.00 | 0.00 | 21 | 1007.4 |
| 20260507010529 | 20 | 113 | 3.2 | 6.4 | 0.00 | 0.00 | 0.00 | 21 | 1007.5 |
| 20260507010203 | 20 | 123 | 1.6 | 6.4 | 0.00 | 0.00 | 0.00 | 21 | 1007.4 |
| 20260507005524 | 19 | 128 | 3.2 | 6.4 | 0.00 | 0.00 | 0.00 | 21 | 1007.4 |
| 20260507005030 | 19 | 117 | 3.2 | 6.4 | 0.00 | 0.00 | 0.00 | 21 | 1007.5 |
| 20260507004703 | 20 | 128 | 3.2 | 11.3 | 0.00 | 0.00 | 0.00 | 20 | 1007.5 |
| 20260507004020 | 20 | 101 | 6.4 | 11.3 | 0.00 | 0.00 | 0.00 | 20 | 1007.5 |
| 20260507003525 | 20 | 94 | 3.2 | 9.7 | 0.00 | 0.00 | 0.00 | 20 | 1007.5 |
| 20260507003207 | 20 | 77 | 6.4 | 9.7 | 0.00 | 0.00 | 0.00 | 21 | 1007.6 |
| 20260507002524 | 19 | 101 | 4.8 | 9.7 | 0.00 | 0.00 | 0.00 | 21 | 1007.7 |
| 20260507002024 | 19 | 84 | 4.8 | 9.7 | 0.00 | 0.00 | 0.00 | 21 | 1007.7 |
| 20260507001723 | 20 | 70 | 4.8 | 9.7 | 0.00 | 0.00 | 0.00 | 21 | 1007.7 |
| 20260507001041 | 20 | 19 | 3.2 | 9.7 | 0.00 | 0.00 | 0.00 | 21 | 1007.7 |
| 20260507000540 | 20 | 51 | 3.2 | 12.9 | 0.00 | 0.00 | 0.00 | 20 | 1007.9 |
| 20260507000231 | 20 | 30 | 4.8 | 12.9 | 0.00 | 0.00 | 0.00 | 21 | 1007.9 |
| 20260506235531 | 20 | 29 | 4.8 | 14.5 | 0.00 | 0.00 | 0.00 | 19 | 1007.9 |
| 20260506235037 | 20 | 348 | 3.2 | 14.5 | 0.00 | 0.00 | 0.00 | 19 | 1008.1 |
| 20260506234611 | 20 | 343 | 4.8 | 9.7 | 0.00 | 0.00 | 0.00 | 19 | 1008.1 |
| 20260506234026 | 20 | 249 | 1.6 | 9.7 | 0.00 | 0.00 | 0.00 | 20 | 1008.0 |
| 20260506233524 | 20 | 5 | 3.2 | 16.1 | 0.00 | 0.00 | 0.00 | 19 | 1008.1 |
| 20260506233201 | 20 | 32 | 3.2 | 16.1 | 0.00 | 0.00 | 0.00 | 18 | 1008.1 |
| 20260506232542 | 21 | 63 | 3.2 | 22.5 | 0.00 | 0.00 | 0.00 | 20 | 1008.1 |
| 20260506232028 | 20 | 5 | 8.0 | 22.5 | 0.00 | 0.00 | 0.00 | 21 | 1008.3 |
| 20260506231658 | 20 | 345 | 3.2 | 14.5 | 0.00 | 0.00 | 0.00 | 20 | 1008.4 |
| 20260506231024 | 20 | 40 | 3.2 | 14.5 | 0.00 | 0.00 | 0.00 | 19 | 1008.6 |
| 20260506230540 | 20 | 263 | 4.8 | 16.1 | 0.00 | 0.00 | 0.00 | 19 | 1008.7 |
| 20260506230203 | 20 | 270 | 6.4 | 16.1 | 0.00 | 0.00 | 0.00 | 19 | 1008.8 |
| 20260506225537 | 20 | 261 | 6.4 | 17.7 | 0.00 | 0.00 | 0.00 | 20 | 1008.8 |
| 20260506225042 | 20 | 230 | 9.7 | 17.7 | 0.00 | 0.00 | 0.00 | 20 | 1008.9 |
| 20260506224712 | 19 | 314 | 4.8 | 12.9 | 0.00 | 0.00 | 0.00 | 20 | 1008.9 |
| 20260506224024 | 19 | 24 | 4.8 | 12.9 | 0.00 | 0.00 | 0.00 | 20 | 1008.9 |
| 20260506223523 | 18 | 327 | 6.4 | 22.5 | 0.00 | 0.00 | 0.00 | 20 | 1009.2 |
| 20260506223211 | 18 | 20 | 8.0 | 22.5 | 0.00 | 0.00 | 0.00 | 19 | 1009.4 |
| 20260506222528 | 19 | 336 | 6.4 | 17.7 | 0.00 | 0.00 | 0.00 | 20 | 1009.5 |
| 20260506222034 | 18 | 319 | 6.4 | 17.7 | 0.00 | 0.00 | 0.00 | 19 | 1009.5 |
| 20260506221706 | 18 | 286 | 6.4 | 16.1 | 0.00 | 0.00 | 0.00 | 19 | 1009.6 |
| 20260506221029 | 18 | 48 | 6.4 | 14.5 | 0.00 | 0.00 | 0.00 | 20 | 1009.6 |
| 20260506220544 | 18 | 274 | 3.2 | 19.3 | 0.00 | 0.00 | 0.00 | 20 | 1009.8 |
| 20260506220214 | 18 | 328 | 6.4 | 20.9 | 0.00 | 0.00 | 0.00 | 20 | 1009.9 |
| 20260506215529 | 18 | 331 | 6.4 | 20.9 | 0.00 | 0.00 | 0.00 | 19 | 1009.8 |
| 20260506215022 | 18 | 246 | 6.4 | 19.3 | 0.00 | 0.00 | 0.00 | 20 | 1010.0 |
| 20260506214657 | 18 | 246 | 6.4 | 25.7 | 0.00 | 0.00 | 0.00 | 20 | 1010.2 |
| 20260506214022 | 18 | 233 | 6.4 | 25.7 | 0.00 | 0.00 | 0.00 | 19 | 1010.0 |
| 20260506213544 | 18 | 244 | 8.0 | 19.3 | 0.00 | 0.00 | 0.00 | 21 | 1010.2 |
| 20260506213214 | 17 | 240 | 1.6 | 16.1 | 0.00 | 0.00 | 0.00 | 21 | 1010.2 |
| 20260506212525 | 17 | 233 | 6.4 | 20.9 | 0.00 | 0.00 | 0.00 | 20 | 1010.2 |
| 20260506212033 | 17 | 219 | 9.7 | 20.9 | 0.00 | 0.00 | 0.00 | 20 | 1010.4 |
| 20260506211719 | 17 | 261 | 11.3 | 20.9 | 0.00 | 0.00 | 0.00 | 20 | 1010.5 |
| 20260506211039 | 17 | 217 | 8.0 | 20.9 | 0.00 | 0.00 | 0.00 | 20 | 1010.6 |
| 20260506210520 | 17 | 283 | 0.0 | 20.9 | 0.00 | 0.00 | 0.00 | 20 | 1010.6 |
| 20260506210212 | 17 | 244 | 9.7 | 20.9 | 0.00 | 0.00 | 0.00 | 20 | 1010.7 |
| 20260506205524 | 17 | 275 | 4.8 | 25.7 | 0.00 | 0.00 | 0.00 | 20 | 1010.8 |
| 20260506205023 | 17 | 270 | 12.9 | 24.1 | 0.00 | 0.00 | 0.00 | 22 | 1010.9 |
| 20260506204709 | 16 | 197 | 4.8 | 22.5 | 0.00 | 0.00 | 0.00 | 22 | 1011.0 |
| 20260506204029 | 16 | 252 | 8.0 | 20.9 | 0.00 | 0.00 | 0.00 | 22 | 1011.1 |
| 20260506203531 | 16 | 326 | 4.8 | 19.3 | 0.00 | 0.00 | 0.00 | 21 | 1011.2 |
| 20260506203224 | 17 | 221 | 14.5 | 30.6 | 0.00 | 0.00 | 0.00 | 22 | 1011.5 |
| 20260506202529 | 16 | 276 | 11.3 | 30.6 | 0.00 | 0.00 | 0.00 | 22 | 1011.4 |
| 20260506202037 | 16 | 229 | 11.3 | 22.5 | 0.00 | 0.00 | 0.00 | 23 | 1011.7 |
| 20260506201713 | 16 | 244 | 9.7 | 25.7 | 0.00 | 0.00 | 0.00 | 21 | 1011.7 |
| 20260506201130 | 16 | 258 | 11.3 | 25.7 | 0.00 | 0.00 | 0.00 | 23 | 1011.8 |
| 20260506200522 | 16 | 279 | 12.9 | 22.5 | 0.00 | 0.00 | 0.00 | 22 | 1011.9 |
| 20260506200216 | 15 | 338 | 3.2 | 20.9 | 0.00 | 0.00 | 0.00 | 22 | 1011.9 |
| 20260506195539 | 15 | 249 | 8.0 | 27.4 | 0.00 | 0.00 | 0.00 | 22 | 1012.0 |
| 20260506195028 | 15 | 273 | 9.7 | 27.4 | 0.00 | 0.00 | 0.00 | 23 | 1012.2 |
| 20260506194658 | 15 | 228 | 16.1 | 27.4 | 0.00 | 0.00 | 0.00 | 22 | 1012.3 |
| 20260506194046 | 15 | 294 | 12.9 | 25.7 | 0.00 | 0.00 | 0.00 | 23 | 1012.2 |
| 20260506193528 | 15 | 218 | 12.9 | 25.7 | 0.00 | 0.00 | 0.00 | 22 | 1012.3 |
| 20260506193149 | 15 | 207 | 11.3 | 22.5 | 0.00 | 0.00 | 0.00 | 23 | 1012.4 |
| 20260506192520 | 15 | 279 | 12.9 | 27.4 | 0.00 | 0.00 | 0.00 | 23 | 1012.4 |
| 20260506192021 | 15 | 251 | 14.5 | 27.4 | 0.00 | 0.00 | 0.00 | 23 | 1012.7 |
| 20260506191614 | 14 | 257 | 14.5 | 19.3 | 0.00 | 0.00 | 0.00 | 22 | 1012.6 |
| 20260506191028 | 14 | 217 | 11.3 | 20.9 | 0.00 | 0.00 | 0.00 | 23 | 1012.7 |
| 20260506190541 | 13 | 214 | 6.4 | 19.3 | 0.00 | 0.00 | 0.00 | 23 | 1012.9 |
| 20260506190224 | 13 | 217 | 8.0 | 20.9 | 0.00 | 0.00 | 0.00 | 24 | 1013.0 |